Location: Newark
(48.3453°N, 0.5589°E)
Time: 11:07:54
(UTC+00:00)

A-11 Canister half - Pass Details

Date: 13 December 2019
Orbit: 1517 x 1683 km, 47.2° (Epoch: 25 January)

Event Time Altitude Azimuth Distance (km) Brightness Sun altitude
Rises 15:04:03 0° 277° (W) 4,807 12.2 6.6°
Reaches altitude 10° 15:07:07 10° 277° (W) 3,843 11.7 6.2°
Maximum altitude 15:16:58 80° 193° (SSW) 1,681 9.5 5.1°
Drops below altitude 10° 15:27:06 10° 108° (ESE) 3,939 10.9 3.8°
Sets 15:30:17 0° 108° (ESE) 4,931 11.3 3.5°
